This demonstration page uses our WeatherBlox Daily Observations layout. Learn more.

Hourly Observations for January 31, 2019

Temp ( °F °C ) Dew Point ( °F °C ) Humidity (%) Winds ( mph kmh ) Pressure ( in mb ) Visibility ( mi km ) Precip ( " mm )
12:15 am 00:15 Clear 9 -13 -8 -22 47 47 N 5 7 30.39 1029 10 16.09344 0 0
12:35 am 00:35 Clear 9 -13 -8 -22 47 47 N 3 6 30.39 1029 10 16.09344 0 0
12:55 am 00:55 Clear 9 -13 -8 -22 47 47 Calm 30.39 1029 10 16.09344 0 0
1:15 am 01:15 Clear 9 -13 -8 -22 47 47 NNW 3 6 30.39 1029 10 16.09344 0 0
1:35 am 01:35 Clear 9 -13 -8 -22 47 47 Calm 30.39 1029 10 16.09344 0 0
1:55 am 01:55 Clear 7 -14 -8 -22 51 51 Calm 30.39 1029 10 16.09344 0 0
2:15 am 02:15 Clear 9 -13 -8 -22 47 47 WNW 3 6 30.42 1030 10 16.09344 0 0
2:35 am 02:35 Clear 7 -14 -8 -22 51 51 Calm 30.42 1030 10 16.09344 0 0
2:55 am 02:55 Clear 3 -16 -6 -21 66 66 W 3 6 30.42 1030 10 16.09344 0 0
3:15 am 03:15 Clear 5 -15 -6 -21 60 60 WSW 3 6 30.42 1030 10 16.09344 0 0
3:35 am 03:35 Clear 5 -15 -6 -21 60 60 Calm 30.45 1031 10 16.09344 0 0
3:55 am 03:55 Clear 3 -16 -6 -21 66 66 Calm 30.45 1031 10 16.09344 0 0
4:15 am 04:15 Clear 5 -15 -4 -20 66 66 Calm 30.45 1031 10 16.09344 0 0
4:35 am 04:35 Clear 5 -15 -4 -20 66 66 Calm 30.45 1031 10 16.09344 0 0
4:55 am 04:55 Clear 1 -17 -6 -21 71 71 Calm 30.45 1031 10 16.09344 0 0
5:15 am 05:15 Clear 5 -15 -6 -21 60 60 ENE 3 6 30.48 1032 10 16.09344 0 0
5:35 am 05:35 Clear 9 -13 -6 -21 51 51 Calm 30.48 1032 10 16.09344 0 0
5:55 am 05:55 Clear 5 -15 -6 -21 60 60 Calm 30.48 1032 10 16.09344 0 0
6:15 am 06:15 Clear 1 -17 -4 -20 78 78 Calm 30.48 1032 10 16.09344 0 0
6:35 am 06:35 Clear 1 -17 -4 -20 78 78 Calm 30.48 1032 10 16.09344 0 0
6:55 am 06:55 Clear 1 -17 -2 -19 85 85 Calm 30.5 1033 10 16.09344 0 0
7:15 am 07:15 Clear 3 -16 0 -18 85 85 ENE 3 6 30.5 1033 10 16.09344 0 0
7:35 am 07:35 Sunny 3 -16 -4 -20 72 72 NNW 3 6 30.5 1033 10 16.09344 0 0
7:55 am 07:55 Sunny 5 -15 -6 -21 60 60 Calm 30.53 1034 10 16.09344 0 0
8:15 am 08:15 Sunny 3 -16 -4 -20 72 72 N 3 6 30.53 1034 10 16.09344 0 0
8:35 am 08:35 Sunny 9 -13 -6 -21 51 51 N 3 6 30.53 1034 10 16.09344 0 0
8:55 am 08:55 Sunny 10 -12 -6 -21 47 47 NNW 3 6 30.56 1035 10 16.09344 0 0
9:15 am 09:15 Sunny 10 -12 -8 -22 44 44 N 5 7 30.56 1035 10 16.09344 0 0
9:35 am 09:35 Sunny 12 -11 -8 -22 40 40 NW 5 7 30.56 1035 10 16.09344 0 0
9:55 am 09:55 Sunny 12 -11 -8 -22 40 40 NNW 5 7 30.56 1035 10 16.09344 0 0
10:15 am 10:15 Sunny 14 -10 -8 -22 37 37 N 5 7 30.56 1035 10 16.09344 0 0
10:35 am 10:35 Sunny 14 -10 -8 -22 37 37 Calm 30.56 1035 10 16.09344 0 0
10:55 am 10:55 Sunny 16 -9 -6 -21 37 37 Calm 30.56 1035 10 16.09344 0 0
11:15 am 11:15 Sunny 18 -8 -6 -21 35 35 WNW 8 13 30.53 1034 10 16.09344 0 0
11:35 am 11:35 Sunny 18 -8 -6 -21 35 35 N 6 9 30.53 1034 10 16.09344 0 0
11:55 am 11:55 Sunny 18 -8 -6 -21 35 35 WNW 6 9 30.5 1033 10 16.09344 0 0
12:15 pm 12:15 Sunny 19 -7 -6 -21 32 32 W 6 9 30.5 1033 10 16.09344 0 0
12:35 pm 12:35 Sunny 19 -7 -6 -21 32 32 NNW 5 7 30.48 1032 10 16.09344 0 0
12:55 pm 12:55 Sunny 19 -7 -4 -20 35 35 WNW 8 13 30.48 1032 10 16.09344 0 0
1:15 pm 13:15 Sunny 19 -7 -4 -20 35 35 WSW 5 7 30.48 1032 10 16.09344 0 0
1:35 pm 13:35 Sunny 21 -6 -4 -20 32 32 WNW 10 17 30.48 1032 10 16.09344 0 0
1:55 pm 13:55 Sunny 21 -6 -4 -20 32 32 W 9 15 30.48 1032 10 16.09344 0 0
2:15 pm 14:15 Sunny 23 -5 -2 -19 33 33 SSW 6 9 30.42 1030 10 16.09344 0 0
2:35 pm 14:35 Sunny 23 -5 -4 -20 30 30 SW 9 15 30.42 1030 10 16.09344 0 0
2:55 pm 14:55 Sunny 23 -5 -4 -20 30 30 SSW 9 15 30.42 1030 10 16.09344 0 0
3:15 pm 15:15 Sunny 23 -5 0 -18 36 36 SSW 7 11 30.42 1030 10 16.09344 0 0
3:35 pm 15:35 Sunny 23 -5 0 -18 36 36 SSW 9 15 30.42 1030 10 16.09344 0 0
3:55 pm 15:55 Sunny 23 -5 0 -18 36 36 WSW 8 13 30.42 1030 10 16.09344 0 0
4:15 pm 16:15 Sunny 23 -5 0 -18 36 36 SSW 8 13 30.42 1030 10 16.09344 0 0
4:35 pm 16:35 Sunny 23 -5 0 -18 36 36 W 5 7 30.42 1030 10 16.09344 0 0
4:55 pm 16:55 Sunny 23 -5 1 -17 39 39 SSW 5 7 30.42 1030 10 16.09344 0 0
5:15 pm 17:15 Sunny 23 -5 0 -18 36 36 Calm 30.42 1030 10 16.09344 0 0
5:35 pm 17:35 Clear 21 -6 0 -18 38 38 Calm 30.45 1031 10 16.09344 0 0
5:55 pm 17:55 Clear 21 -6 0 -18 38 38 Calm 30.45 1031 10 16.09344 0 0
6:15 pm 18:15 Clear 18 -8 1 -17 49 49 WNW 5 7 30.45 1031 10 16.09344 0 0
6:35 pm 18:35 Clear 19 -7 1 -17 45 45 Calm 30.45 1031 10 16.09344 0 0
7:15 pm 19:15 Clear 19 -7 3 -16 49 49 Calm 30.45 1031 10 16.09344 0 0
7:35 pm 19:35 Clear 18 -8 3 -16 53 53 N 3 6 30.45 1031 10 16.09344 0 0
7:55 pm 19:55 Clear 14 -10 5 -15 67 67 NNW 3 6 30.45 1031 10 16.09344 0 0
8:15 pm 20:15 Clear 16 -9 5 -15 62 62 Calm 30.48 1032 10 16.09344 0 0
8:35 pm 20:35 Clear 16 -9 5 -15 62 62 Calm 30.48 1032 10 16.09344 0 0
8:55 pm 20:55 Clear 12 -11 5 -15 73 73 Calm 30.48 1032 10 16.09344 0 0
9:15 pm 21:15 Clear 12 -11 5 -15 73 73 NNW 3 6 30.48 1032 10 16.09344 0 0
9:35 pm 21:35 Clear 14 -10 5 -15 67 67 Calm 30.48 1032 10 16.09344 0 0
9:55 pm 21:55 Clear 14 -10 7 -14 73 73 Calm 30.48 1032 10 16.09344 0 0
10:15 pm 22:15 Clear 12 -11 5 -15 73 73 Calm 30.48 1032 10 16.09344 0 0
10:35 pm 22:35 Clear 9 -13 5 -15 85 85 Calm 30.48 1032 10 16.09344 0 0
10:55 pm 22:55 Clear 10 -12 5 -15 79 79 Calm 30.48 1032 10 16.09344 0 0
11:15 pm 23:15 Clear 9 -13 5 -15 85 85 Calm 30.48 1032 10 16.09344 0 0
11:35 pm 23:35 Clear 10 -12 5 -15 79 79 Calm 30.48 1032 10 16.09344 0 0
11:55 pm 23:55 Clear 12 -11 5 -15 73 73 Calm 30.48 1032 10 16.09344 0 0

Powered by AerisWeather